Regional Weather Roundup
Issued by NWS

Home | Current Version | Previous Version | Graphics & Text | Print | Product List | Glossary On
Versions: 1 2 3 4 5 6 7 8 9 10 11 12 13 14 15 16 17 18 19 20 21 22 23 24 25 26 27 28 29 30 31 32 33 34 35 36 37 38 39 40 41 42 43 44 45 46 47 48 49 50
000
ASUS43 KLOT 101609
RWRIL

ILLINOIS REGIONAL WEATHER ROUNDUP
NATIONAL WEATHER SERVICE CHICAGO/ROMEOVILLE IL
1100 AM CDT MON AUG 10 2020

NOTE: "FAIR" INDICATES FEW OR NO CLOUDS BELOW 12,000 FEET WITH NO
SIGNIFICANT WEATHER AND/OR OBSTRUCTIONS TO VISIBILITY.

* THESE STATIONS ARE NOT UNDER NWS QUALITY CONTROL. THEY ALSO MAY NOT
  REPORT WEATHER SUCH AS PRECIPITATION OR FOG.

ILZ001-002-007-009-015-016-024-101700-
NORTHWEST ILLINOIS

CITY           SKY/WX    TMP DP  RH WIND       PRES   REMARKS
MOLINE         MOSUNNY   87  75  67 W8        29.90S HX  96
STERLING*      MOSUNNY   84  76  76 VRB5      29.92F HX  93
SAVANNA*       MOSUNNY   82  73  74 CALM      29.90S HX  88
$$

ILZ003-004-008-010-011-017-018-101700-
NORTH CENTRAL ILLINOIS

CITY           SKY/WX    TMP DP  RH WIND       PRES   REMARKS
ROCKFORD       PTSUNNY   82  73  74 S5        29.92F HX  87
FREEPORT*      CLOUDY    80  75  84 CALM      29.94S HX  85
ROCHELLE*      CLOUDY    80  77  88 CALM      29.93F HX  87
DE KALB*       PTSUNNY   80  76  86 S5        29.94F HX  85
PERU*          SUNNY     86  75  69 S6        29.92F HX  95
$$

ILZ005-006-012>014-019>023-101700-
NORTHEAST ILLINOIS

CITY           SKY/WX    TMP DP  RH WIND       PRES   REMARKS
CHICAGO-OHARE  PTSUNNY   84  73  69 SW7       29.94S HX  90
CHICAGO-MIDWAY PTSUNNY   83  73  72 W8        29.95S HX  89
AURORA         MOSUNNY   83  74  74 SW7       29.94F HX  89
JOLIET*        CLOUDY    84  76  77 S6        29.94F HX  93
WAUKEGAN       PTSUNNY   81  74  79 SW7       29.92F HX  86
DUPAGE AIRPORT CLOUDY    82  73  74 W8        29.94F HX  87
KANKAKEE*      PTSUNNY   82  75  78 S8        29.97F HX  89
WHEELING       CLOUDY    83  75  77 SW6       29.94F HX  90
MORRIS*        PTSUNNY   83  77  82 SW5       29.93F HX  92
ROMEOVILLE*    CLOUDY    82  75  78 S6        29.95F HX  89
NORTHERLY ISL    N/A     82  71  69 W8          N/A  HX  86
$$

LMZ740>746-101700-
SOUTHERN LAKE MICHIGAN

STATION/POSITION SKY/WX   TEMP    WIND        PRES    VSBY  WAVE
                          AIR SEA DIR/SP/G                  HT/PER
                          (F)     (DEG/KT/KT) (MB)    (MI)  (FT/S)
SOUTHERN BUOY              74 72  230/ 10/ 10 1014.1R         2/ 4
WINTHROP HARBOR            77 72  270/  4/ 10   N/A           1/ 4
WILMETTE HARBOR            78 74  250/  4/  6 1013.8R         1/ 3
HARRISON CRIB              80     210/ 10/ 11   N/A
NORTHERLY ISL              82     240/  3/ 12   N/A
CALUMET HARBOR             81     210/  8/ 11 1013.7R
MICHIGAN CITY              81     190/ 12/ 14   N/A
MICHIGAN CITY 6N           74 74                N/A           1/ 3
$$

ILZ025>027-034>036-040-047-049-050-058-095>099-101700-
WEST-CENTRAL ILLINOIS

CITY           SKY/WX    TMP DP  RH WIND       PRES   REMARKS
QUINCY         MOSUNNY   89  74  60 SW12      29.94F HX  98
GALESBURG*     SUNNY     87  73  62 SW12G20   29.93S HX  95
MACOMB*        SUNNY     86  76  72 W13       29.95S HX  95
JACKSONVILLE*  SUNNY     86  77  74 SW8       29.96S HX  98
PITTSFIELD*    SUNNY     87  78  75 SW7       29.97S HX 100
$$

ILZ028>032-037-038-041>044-048-051>054-059>061-101700-
CENTRAL ILLINOIS

CITY           SKY/WX    TMP DP  RH WIND       PRES   REMARKS
PONTIAC        MOSUNNY   83  76  79 W3        29.96F HX  92
BLOOMINGTON    SUNNY     85  76  74 SW6       29.98S HX  94
DECATUR        SUNNY     86  79  79 SW12      29.97F HX  99
PEORIA         SUNNY     89  75  63 SW9       29.93S HX  99
LACON*         SUNNY     86  75  69 S3        29.93S HX  94
LINCOLN*       SUNNY     89  75  63 SW5       29.95F HX  98
SPRINGFIELD    SUNNY     88  76  67 SW8       29.95F HX  99
TAYLORVILLE    SUNNY     86  77  75 SW6       29.98F HX  97
$$

ILZ033-039-045-046-055>057-062-063-101700-
EAST-CENTRAL ILLINOIS

CITY           SKY/WX    TMP DP  RH WIND       PRES   REMARKS
CHAMPAIGN      MOSUNNY   85  77  77 MISG      29.98F HX  95
DANVILLE*      SUNNY     82  75  78 S5        30.01S HX  89
RANTOUL*       MOSUNNY   84  79  85 SW7       29.98F HX  95
MATTOON        SUNNY     85  77  77 VRB7      29.99F HX  95
PARIS*         MOSUNNY   85  78  81 CALM      30.02F HX  97
$$

ILZ079-100>102-101700-
SOUTHWEST ILLINOIS

CITY           SKY/WX    TMP DP  RH WIND       PRES   REMARKS
ALTON          MOSUNNY   88  79  74 SW8       29.99S HX 102
BELLEVILLE     SUNNY     89  78  69 SW3       29.98F HX 104
CAHOKIA*       SUNNY     89  76  65 SW8       29.99S HX 100
SPARTA*        MOSUNNY   86  77  74 W5        30.03F HX  97
$$

ILZ064>066-069>071-074>076-080>082-084>086-088>090-092>094-101700-
SOUTH-CENTRAL ILLINOIS

CITY           SKY/WX    TMP DP  RH WIND       PRES   REMARKS
CARBONDALE     MOSUNNY   88  76  67 SW5       30.02S HX  99
CAIRO*         SUNNY     86  77  74 SW6       30.05S HX  97
EFFINGHAM*     SUNNY     87  77  72 CALM      30.02S HX  99
MARION         MOSUNNY   86  77  74 SW8       30.04S HX  97
MT. VERNON     SUNNY     89  78  70 SW7       30.02S HX 103
CENTRALIA*     SUNNY     88  80  78 SW7       30.00F HX 105
SALEM*         SUNNY     88  79  75 SW6       30.01S HX 102
METROPOLIS*    MOSUNNY   84  74  71 SW7       30.05S HX  91
$$

ILZ067-068-072-073-078-083-087-091-101700-
SOUTHEAST ILLINOIS

CITY           SKY/WX    TMP DP  RH WIND       PRES   REMARKS
LAWRENCEVILLE  MOSUNNY   86  77  74 S8        30.02R HX  97
FLORA*         SUNNY     88  77  70 SW7       30.01S HX 100
FAIRFIELD*     PTSUNNY   86  78  76 SW3       30.01S HX  98
HARRISBURG*    MOSUNNY   87  81  82 W5        30.04S HX 103
ROBINSON*      SUNNY     84  77  81 SW5       30.02S HX  93
CARMI*         SUNNY     88  79  74 SW3       30.02S HX 102
$$

ABBREVIATIONS USED IN REMARKS
   TC - TEMPERATURE IN CELSIUS
  WCI - WIND CHILL INDEX
   HX - HEAT INDEX
  VSB - VISIBILITY
$$




USA.gov is the U.S. government's official web portal to all federal, state and local government web resources and services.